This is the latest recevied weather packets stored in our database for station/object KB2M. If no packets are shown the sender has not sent any weather packets the latest 10 day(s).
| Time | Temp. | Humidity | Pressure | Rain* | Wind** | Luminosity | Snow |
|---|---|---|---|---|---|---|---|
| 1778012447 | 24.44° C | 56% | 1017.6 hPa | 0 mm | - | - | - |
| 1778011846 | 24.44° C | 55% | 1017.6 hPa | 0 mm | - | - | - |
| 1778011245 | 25° C | 53% | 1017.6 hPa | 0 mm | - | - | - |
| 1778010645 | 24.44° C | 54% | 1017.9 hPa | 0 mm | - | - | - |
| 1778010044 | 24.44° C | 54% | 1018.2 hPa | 0 mm | - | - | - |
| 1778009443 | 25° C | 53% | 1018.2 hPa | 0 mm | - | - | - |
| 1778008843 | 24.44° C | 56% | 1018.2 hPa | 0 mm | - | - | - |
| 1778008242 | 25° C | 54% | 1018.2 hPa | 0 mm | - | - | - |
| 1778007641 | 25° C | 54% | 1018.6 hPa | 0 mm | - | - | - |
| 1778007041 | 24.44° C | 55% | 1018.6 hPa | 0 mm | - | - | - |
| 1778006440 | 24.44° C | 55% | 1018.6 hPa | 0 mm | - | - | - |
| 1778005839 | 24.44° C | 56% | 1018.6 hPa | 0 mm | - | - | - |
| 1778005239 | 24.44° C | 56% | 1018.6 hPa | 0 mm | - | - | - |
| 1778004638 | 24.44° C | 55% | 1018.6 hPa | 0 mm | - | - | - |
| 1778004037 | 24.44° C | 57% | 1018.9 hPa | 0 mm | - | - | - |
| 1778003436 | 24.44° C | 55% | 1018.6 hPa | 0 mm | - | - | - |
| 1778002836 | 24.44° C | 55% | 1018.9 hPa | 0 mm | - | - | - |
| 1778002206 | 25° C | 52% | 1018.9 hPa | 0 mm | - | - | - |
| 1778001606 | 25° C | 52% | 1019.3 hPa | 0 mm | - | - | - |
| 1778000976 | 24.44° C | 53% | 1018.9 hPa | 0 mm | - | - | - |
| 1778000346 | 23.89° C | 55% | 1019.3 hPa | 0 mm | - | - | - |
| 1777999746 | 24.44° C | 55% | 1019.3 hPa | 0 mm | - | - | - |
| 1777999116 | 24.44° C | 56% | 1019.3 hPa | 0 mm | - | - | - |
| 1777998516 | 24.44° C | 56% | 1019.3 hPa | 0 mm | - | - | - |
| 1777997886 | 24.44° C | 56% | 1019.3 hPa | 0 mm | - | - | - |
* Rain latest hour (hover to see other rain measurements)
** Current wind speed in m/s (hover to see current wind gust speed)